Date String (YYYY-MM-DD hh:mm:ss) UTC,Instrument flags,Ambient pressure (hPa),Sample flow (lpm),Bypass flow (lpm),Sample temperature (°C),Ambient temperature (°C),ASC tube jacket temperature (°C),LED temperature (°C),Box temperature (°C),Sample RH (%),Span deviation,Mass concentration (μg/m³),Mass concentration (μg/m³),Mass concentration (μg/m³)
DateTimeUTC,F1_M11,P_M11,Q1_M11,Q2_M11,T1_M11,T2_M11,T3_M11,T4_M11,T5_M11,U1_M11,ZSPAN_M11,X0_M11,X2_M11,X1_M11
2022-05-27 17:00:00,,0824.3,5.01,0.00,29.3,28.3,00.0,38.1,31.2,20.4,0000.0,0010.32,0003.41,0002.46
2022-05-27 17:01:00,,0824.2,5.01,0.00,29.3,28.4,00.0,38.1,31.3,20.4,0000.0,0010.49,0003.43,0002.47
2022-05-27 17:02:00,,0824.2,5.00,0.00,29.3,28.1,00.0,38.1,31.2,20.4,0000.0,0011.91,0003.40,0002.50
2022-05-27 17:03:00,,0824.2,5.00,0.00,29.3,27.2,00.0,38.0,31.0,19.9,0000.0,0011.85,0003.41,0002.52
2022-05-27 17:04:00,,0824.2,5.00,0.00,29.2,26.9,00.0,38.0,30.9,20.9,0000.0,0010.87,0003.40,0002.53
2022-05-27 17:05:00,,0824.1,5.00,0.00,29.1,27.0,00.0,38.0,30.9,21.0,0000.0,0010.96,0003.39,0002.54
2022-05-27 17:06:00,,0824.2,5.00,0.00,29.1,27.1,00.0,38.0,30.9,21.6,0000.0,0010.72,0003.38,0002.54
2022-05-27 17:07:00,,0824.2,5.02,0.00,29.1,27.3,00.0,38.0,30.9,20.5,0000.0,0010.42,0003.37,0002.54
2022-05-27 17:08:00,,0824.2,5.00,0.00,29.1,27.5,00.0,38.0,31.0,21.4,0000.0,0010.97,0003.39,0002.55
2022-05-27 17:09:00,,0824.2,5.00,0.00,29.1,27.7,00.0,38.0,31.0,19.4,0000.0,0011.56,0003.39,0002.54
2022-05-27 17:10:00,,0824.1,5.00,0.00,29.1,27.8,00.0,38.0,31.1,19.1,0000.0,0011.75,0003.40,0002.54
2022-05-27 17:11:00,,0824.1,4.99,0.00,29.2,28.0,00.0,38.0,31.1,19.8,0000.0,0012.09,0003.40,0002.54
2022-05-27 17:12:00,,0824.1,4.99,0.00,29.2,28.1,00.0,38.0,31.2,19.1,0000.0,0012.71,0003.37,0002.53
2022-05-27 17:13:00,,0824.1,5.00,0.00,29.2,28.3,00.0,38.0,31.2,19.0,0000.0,0011.34,0003.38,0002.52
2022-05-27 17:14:00,,0824.1,5.01,0.00,29.3,28.1,00.0,38.0,31.2,19.6,0000.0,0011.08,0003.42,0002.50
2022-05-27 17:15:00,,0824.1,5.00,0.00,29.2,27.4,00.0,38.0,31.0,21.1,0000.0,0010.98,0003.40,0002.49
2022-05-27 17:16:00,,0824.1,4.99,0.00,29.1,26.9,00.0,37.9,30.8,20.6,0000.0,0010.84,0003.38,0002.47
2022-05-27 17:17:00,,0824.1,5.00,0.00,29.1,26.9,00.0,37.9,30.8,18.9,0000.0,0012.61,0003.40,0002.47
2022-05-27 17:18:00,,0824.1,5.01,0.00,29.0,27.0,00.0,37.9,30.8,19.2,0000.0,0013.66,0003.44,0002.48
2022-05-27 17:19:00,,0824.1,5.00,0.00,29.0,27.2,00.0,37.9,30.8,19.0,0000.0,0012.94,0003.42,0002.46
2022-05-27 17:20:00,,0824.1,4.99,0.00,29.0,27.4,00.0,37.9,30.9,18.6,0000.0,0012.88,0003.42,0002.46
2022-05-27 17:21:00,,0824.0,5.00,0.00,29.1,27.6,00.0,37.9,30.9,19.7,0000.0,0013.09,0003.41,0002.45
2022-05-27 17:22:00,,0824.1,4.99,0.00,29.1,27.8,00.0,37.9,31.0,21.8,0000.0,0012.91,0003.41,0002.43
2022-05-27 17:23:00,,0824.1,5.00,0.00,29.1,27.9,00.0,37.9,31.1,21.1,0000.0,0012.23,0003.46,0002.44
2022-05-27 17:24:00,,0824.1,5.01,0.00,29.1,28.1,00.0,38.0,31.1,21.5,0000.0,0012.69,0003.46,0002.43
2022-05-27 17:25:00,,0824.1,5.01,0.00,29.2,28.2,00.0,38.0,31.2,22.2,0000.0,0013.51,0003.44,0002.46
2022-05-27 17:26:00,,0824.1,4.99,0.00,29.2,28.2,00.0,38.0,31.2,23.1,0000.0,0014.05,0003.45,0002.46
2022-05-27 17:27:00,,0824.1,5.00,0.00,29.2,27.6,00.0,37.9,31.0,24.4,0000.0,0013.97,0003.50,0002.49
2022-05-27 17:28:00,,0824.1,5.01,0.00,29.1,27.0,00.0,37.9,30.8,22.5,0000.0,0012.05,0003.51,0002.51
2022-05-27 17:29:00,,0824.1,5.00,0.00,29.1,27.0,00.0,37.9,30.8,22.7,0000.0,0011.33,0003.50,0002.50
2022-05-27 17:30:00,,0824.0,4.99,0.00,29.0,27.0,00.0,37.9,30.8,22.8,0000.0,0012.58,0003.52,0002.52
2022-05-27 17:31:00,,0824.0,5.01,0.00,29.0,27.2,00.0,37.9,30.8,23.9,0000.0,0012.50,0003.56,0002.53
2022-05-27 17:32:00,,0824.1,5.01,0.00,29.0,27.4,00.0,37.9,30.9,24.6,0000.0,0012.27,0003.58,0002.56
2022-05-27 17:33:00,,0824.1,5.00,0.00,29.0,27.6,00.0,37.9,30.9,24.5,0000.0,0012.20,0003.59,0002.59
2022-05-27 17:34:00,,0824.0,5.00,0.00,29.1,27.7,00.0,37.9,31.0,23.1,0000.0,0011.94,0003.58,0002.60
2022-05-27 17:35:00,,0824.0,5.01,0.00,29.1,27.9,00.0,37.9,31.0,22.5,0000.0,0011.86,0003.63,0002.62
2022-05-27 17:36:00,,0823.9,5.00,0.00,29.1,28.1,00.0,37.9,31.1,20.2,0000.0,0011.08,0003.66,0002.64
2022-05-27 17:37:00,,0824.0,5.00,0.00,29.2,28.2,00.0,37.9,31.2,17.1,0000.0,0010.30,0003.67,0002.64
2022-05-27 17:38:00,,0823.9,5.00,0.00,29.2,28.1,00.0,37.9,31.2,19.6,0000.0,0010.18,0003.63,0002.62
2022-05-27 17:39:00,,0823.9,4.99,0.00,29.1,27.4,00.0,37.9,31.0,17.8,0000.0,0010.32,0003.64,0002.60
2022-05-27 17:40:00,,0823.9,4.99,0.00,29.1,27.0,00.0,37.8,30.8,18.5,0000.0,0010.32,0003.65,0002.61
2022-05-27 17:41:00,,0823.9,5.00,0.00,29.1,27.0,00.0,37.8,30.8,20.1,0000.0,0010.41,0003.65,0002.60
2022-05-27 17:42:00,,0823.9,5.01,0.00,29.0,27.1,00.0,37.8,30.8,18.2,0000.0,0009.84,0003.62,0002.61
2022-05-27 17:43:00,,0823.8,5.01,0.00,29.0,27.3,00.0,37.8,30.8,17.0,0000.0,0009.76,0003.59,0002.59
2022-05-27 17:44:00,,0823.8,5.00,0.00,29.0,27.5,00.0,37.9,30.9,15.6,0000.0,0009.10,0003.55,0002.56
2022-05-27 17:45:00,,0823.8,5.00,0.00,29.0,27.6,00.0,37.9,31.0,16.1,0000.0,0009.07,0003.53,0002.55
2022-05-27 17:46:00,,0823.8,5.00,0.00,29.1,27.8,00.0,37.9,31.0,17.2,0000.0,0008.78,0003.48,0002.52
2022-05-27 17:47:00,,0823.8,5.00,0.00,29.1,28.0,00.0,37.9,31.1,17.6,0000.0,0008.53,0003.38,0002.47
2022-05-27 17:48:00,,0823.8,5.00,0.00,29.1,28.1,00.0,37.9,31.1,18.1,0000.0,0008.61,0003.35,0002.44
2022-05-27 17:49:00,,0823.8,5.01,0.00,29.1,27.8,00.0,37.9,31.1,16.5,0000.0,0009.67,0003.34,0002.44
2022-05-27 17:50:00,,0823.8,4.99,0.00,29.1,27.1,00.0,37.8,30.8,15.9,0000.0,0009.83,0003.32,0002.43
2022-05-27 17:51:00,,0823.8,5.00,0.00,29.0,26.8,00.0,37.8,30.7,15.7,0000.0,0009.74,0003.30,0002.42
2022-05-27 17:52:00,,0823.8,5.01,0.00,29.0,26.9,00.0,37.8,30.7,15.7,0000.0,0008.81,0003.28,0002.41
2022-05-27 17:53:00,,0823.8,5.02,0.00,28.9,27.0,00.0,37.8,30.8,17.1,0000.0,0008.33,0003.25,0002.39
2022-05-27 17:54:00,,0823.7,5.00,0.00,29.0,27.2,00.0,37.8,30.8,16.2,0000.0,0008.43,0003.25,0002.39
2022-05-27 17:55:00,,0823.7,5.00,0.00,29.0,27.4,00.0,37.8,30.9,14.9,0000.0,0008.88,0003.28,0002.39
2022-05-27 17:56:00,,0823.7,5.01,0.00,29.0,27.6,00.0,37.8,30.9,14.2,0000.0,0008.91,0003.26,0002.37
2022-05-27 17:57:00,,0823.6,5.01,0.00,29.0,27.8,00.0,37.8,31.0,12.9,0000.0,0008.77,0003.27,0002.37
2022-05-27 17:58:00,,0823.7,5.00,0.00,29.1,28.0,00.0,37.9,31.0,12.4,0000.0,0008.70,0003.28,0002.36
2022-05-27 17:59:00,,0823.7,5.01,0.00,29.1,28.1,00.0,37.9,31.1,14.5,0000.0,0008.68,0003.30,0002.36
